This demonstration page uses our WeatherBlox Daily Observations layout. Learn more.

Left ArrowRight Arrow

40.97296, -117.73568

Hourly Observations for August 12, 2022

Temp ( °F °C ) Dew Point ( °F °C ) Humidity (%) Winds ( mph kmh ) Pressure ( in mb ) Visibility ( mi km ) Precip ( " mm )
12:56 am 00:56 Clear 65 18.3 46 7.8 50 50 ENE 5 7 29.93 1014 10 16 0.00 0.00
1:56 am 01:56 Clear 71 21.7 37 2.8 29 29 NNE 3 6 29.92 1013 10 16 0.00 0.00
2:56 am 02:56 Clear 64 17.8 43 6.1 46 46 NNE 5 7 29.93 1014 10 16 0.00 0.00
3:56 am 03:56 Mostly Clear 62 16.7 44 6.7 52 52 NNE 3 6 29.94 1014 10 16 0.00 0.00
4:56 am 04:56 Mostly Cloudy 58 14.4 44 6.7 60 60 Calm 29.95 1014 10 16 0.00 0.00
5:56 am 05:56 Partly Cloudy 57 13.9 44 6.7 62 62 NE 3 6 29.96 1015 10 16 0.00 0.00
6:56 am 06:56 Sunny 66 18.9 40 4.4 38 38 Calm 29.96 1015 10 16 0.00 0.00
7:56 am 07:56 Sunny 75 23.9 31 -0.6 20 20 Calm 29.97 1015 10 16 0.00 0.00
8:56 am 08:56 Sunny 79 26.1 34 1.1 20 20 N 3 6 29.98 1015 10 16 0.00 0.00
9:56 am 09:56 Sunny 84 28.9 31 -0.6 15 15 VRB 5 7 29.97 1015 10 16 0.00 0.00
10:56 am 10:56 Sunny 88 31.1 27 -2.8 11 11 undefined N/A 29.97 1015 10 16 0.00 0.00
11:56 am 11:56 Sunny 91 32.8 24 -4.4 9 9 WNW 10 17 29.95 1014 10 16 0.00 0.00
12:56 pm 12:56 Sunny 92 33.3 26 -3.3 9 9 Calm 29.94 1014 10 16 0.00 0.00
1:56 pm 13:56 Sunny 94 34.4 30 -1.1 10 10 W 13 20 29.91 1013 10 16 0.00 0.00
2:56 pm 14:56 Sunny 94 34.4 33 0.6 12 12 VRB 3 6 29.90 1012 10 16 0.00 0.00
3:56 pm 15:56 Sunny 96 35.6 33 0.6 11 11 W 14 22 29.87 1012 10 16 0.00 0.00
4:56 pm 16:56 Sunny 96 35.6 35 1.7 12 12 W 13 20 29.86 1011 10 16 0.00 0.00
5:56 pm 17:56 Sunny 95 35 31 -0.6 10 10 WNW 9 15 29.85 1011 10 16 0.00 0.00
6:56 pm 18:56 Sunny 92 33.3 30 -1.1 11 11 W 13 20 29.85 1011 10 16 0.00 0.00
7:56 pm 19:56 Clear 82 27.8 30 -1.1 15 15 W 7 11 29.88 1012 10 16 0.00 0.00
8:56 pm 20:56 Clear 75 23.9 30 -1.1 19 19 Calm 29.91 1013 10 16 0.00 0.00
9:56 pm 21:56 Clear 70 21.1 32 0 24 24 SSE 3 6 29.92 1013 10 16 0.00 0.00
10:56 pm 22:56 Clear 68 20 34 1.1 28 28 E 3 6 29.91 1013 10 16 0.00 0.00
11:56 pm 23:56 Clear 58 14.4 34 1.1 40 40 Calm 29.94 1014 10 16 0.00 0.00

Powered by AerisWeather